Location: PSU-Greenbush Astrophysical Observatory
(37.5140°N, 94.9880°W)
Time: 05:35:54
(UTC-06:00)

deb Explorer IX - Pass Details

Date: 27 January 2020
Orbit: 549 x 1099 km, 38.8° (Epoch: 22 February)

Event Time Altitude Azimuth Distance (km) Brightness Sun altitude
Rises 19:22:20 0° 211° (SSW) 3,435 ? -20.7°
Reaches altitude 10° 19:25:05 10° 200° (SSW) 2,589 ? -21.3°
Maximum altitude 19:30:22 29° 143° (SE) 1,739 ? -22.3°
Enters shadow 19:31:05 28° 132° (SE) 1,775 ? -22.4°
Drops below altitude 10° 19:36:11 10° 87° (E) 2,869 - -23.4°
Sets 19:39:23 0° 77° (ENE) 3,872 - -24.1°
